Regional Weather Roundup
Issued by NWS

Home | Current Version | Previous Version | Text Only | Print | Product List | Glossary On
Versions: 1 2 3 4 5 6 7 8 9 10 11 12 13 14 15 16 17 18 19 20 21 22 23 24 25 26 27 28 29 30 31 32 33 34 35 36 37 38 39 40 41 42 43 44 45 46 47 48 49 50
000
ASUS43 KDTX 291310
RWRMI
MICHIGAN HOURLY REGIONAL WEATHER ROUNDUP
NATIONAL WEATHER SERVICE DETROIT/PONTIAC MI
900 AM EDT SUN MAR 29 2015

NOTE: "FAIR" INDICATES FEW OR NO CLOUDS BELOW 12,000 FEET WITH NO
SIGNIFICANT WEATHER AND/OR OBSTRUCTION TO VISIBILITY.

MIZ047>049-052>055-059>063-066>070-074>076-081>083-291400-
SOUTHEAST LOWER MICHIGAN

CITY           SKY/WX    TMP DP  RH WIND       PRES   REMARKS
ADRIAN         SUNNY     26  17  68 SW12      30.26F WCI  16
ALMA           SUNNY     28  18  65 S10       30.17R WCI  18
ANN ARBOR      SUNNY     26  19  74 SW9       30.25S WCI  17
BAD AXE        SUNNY     29  13  52 SW15      30.19S WCI  18
CARO           MOSUNNY   29  16  59 SW8       30.19S WCI  21
DETROIT CITY   SUNNY     30  17  58 SW9       30.27S WCI  22
DETROIT        MOSUNNY   28  18  66 S10       30.27F WCI  19
FLINT          SUNNY     31  14  49 SW12      30.21S WCI  22
GROSSE ILE     SUNNY     28  18  64 SW9       30.27F WCI  20
HILLSDALE      SUNNY     26  17  66 S9        30.21S WCI  17
HOWELL         SUNNY     28  16  61 S7        30.21S WCI  20

CITY           SKY/WX    TMP DP  RH WIND       PRES   REMARKS
JACKSON        SUNNY     28  15  58 S13       30.21F WCI  17
LAMBERTVILLE   SUNNY     30  18  59 SW8       30.28F WCI  23
LANSING        SUNNY     28  14  55 S12       30.19F WCI  18
LAPEER         FAIR      28  14  55 SW8       30.21S WCI  20
MASON          SUNNY     27  15  59 S6        30.20F WCI  21
MONROE         SUNNY     28  18  64 SW8       30.26F WCI  20
MT. CLEMENS    MOSUNNY   29  17  63 SW10      30.23S WCI  19
PONTIAC        MOSUNNY   27  13  55 SW10      30.21F WCI  17
PORT HOPE        N/A     30  12  47 SW9G17    30.17S WCI  22
PORT HURON     SUNNY     27  19  74 S10       30.25F WCI  17
TRI CITIES     MOSUNNY   28  14  55 S12       30.17F WCI  18
TROY           SUNNY     27  15  60 CALM      30.26F
SAGINAW HB     MOSUNNY   28  16  59 S13       30.18F WCI  18
$$
MIZ043>046-050>051-056>058-064>065-071>073-077>080-291400-
SOUTHWEST LOWER MICHIGAN

CITY           SKY/WX    TMP DP  RH WIND       PRES   REMARKS
BATTLE CREEK   MOSUNNY   29  16  58 S16       30.18F WCI  17
BENTON HARBOR  PTSUNNY   30  16  56 S10G21    30.19R WCI  21
BIG RAPIDS     MOSUNNY   28  13  52 S7G16     30.12S WCI  21
COLDWATER      SUNNY     29  16  58 S14G20    30.20F WCI  18
FREMONT        FAIR      28  13  52 S8        30.14R WCI  20
HOLLAND        MOSUNNY   30  17  58 S14       30.17R WCI  19
GRAND RAPIDS   PTSUNNY   29  15  56 S14       30.18R WCI  18
IONIA          FAIR      29  17  59 S14G20    30.16R WCI  19
KALAMAZOO      SUNNY     30  17  58 S14       30.18F WCI  19
LUDINGTON      PTSUNNY   34  26  71 S18G25    30.09F WCI  23
MARSHALL       SUNNY     28  16  60 S9        30.20S WCI  19
MOUNT PLEASANT SUNNY     27  14  57 S9        30.16R WCI  18
MUSKEGON       PTSUNNY   32  20  61 S15G23    30.15R WCI  22
SOUTH HAVEN    MOSUNNY   32  15  50 S13G20    30.17R WCI  22
$$
MIZ016>042-291400-
NORTHERN LOWER MICHIGAN

CITY           SKY/WX    TMP DP  RH WIND       PRES   REMARKS
ALPENA         SUNNY     28   7  41 SW9       30.10S WCI  19
BEAVER ISLAND  PTSUNNY   31  22  71 S13G26    29.97F WCI  21
BELLAIRE       MOSUNNY   30  11  45 S7        30.05F WCI  24
CADILLAC       MOSUNNY   26  10  49 S10       30.07R WCI  17
CHARLEVOIX     PTSUNNY   30  14  51 S12G18    30.04F WCI  20
FRANKFORT      PTSUNNY   35  22  58 S14G28    30.05F WCI  26
GAYLORD        SUNNY     25   7  46 S15       30.03F WCI  13
GRAYLING       SUNNY     27   4  37 S9        30.08F WCI  17
HARBOR SPRINGS MOSUNNY   28  11  48 SW7       30.01F WCI  21
HOUGHTON LAKE  SUNNY     26   5  40 SW9       30.10R WCI  17
MANISTEE       PTSUNNY   30  19  64 S10G17    30.08F WCI  21
OSCODA         SUNNY     25  15  65 SW10      30.14F WCI  15
PELLSTON       MOSUNNY   30  11  45 S13G22    30.01F WCI  20
ROGERS CITY    SUNNY     28  11  49 SW12G17   30.07F WCI  18
TRAVERSE CITY  MOSUNNY   32  15  49 SW12G18   30.04F WCI  23
$$
MIZ007>008-015-291400-
EASTERN UPPER MICHIGAN

CITY           SKY/WX    TMP DP  RH WIND       PRES   REMARKS
KINROSS        MOSUNNY   28  18  64 S13       29.96F WCI  18
MACKINAC ISLAN SUNNY     27  13  56 S13G18    29.99F WCI  16
NEWBERRY       PTSUNNY   27  24  88 S15G29    29.90F WCI  16
S. S. MARIE    MOSUNNY   19  11  70 E5        29.96F WCI  12
MUNISING         N/A     33  17  51 S17G28    29.80F WCI  22
$$
MIZ004>006-011>014-085-291400-
CENTRAL UPPER MICHIGAN

CITY           SKY/WX    TMP DP  RH WIND       PRES   REMARKS
MANISTIQUE     MOSUNNY   33  27  79 S21G26    29.91F WCI  21
ESCANABA       MOSUNNY   32  19  59 S15G28    29.87F WCI  22
MENOMINEE      PTSUNNY   32  19  59 S20G29    29.88F WCI  20
SAWYER-GWINN   CLOUDY    28  18  64 S23G29    29.76F WCI  14
$$
MIZ001>003-009>011-084-291400-
WESTERN UPPER MICHIGAN

CITY           SKY/WX    TMP DP  RH WIND       PRES   REMARKS
IRON MOUNTAIN  PTSUNNY   30  15  53 S14       29.78F WCI  19
HOUGHTON       CLOUDY    33  17  51 S20G30    29.59F WCI  21
COPPER HARBOR    N/A     35  19  52 SW15G25   29.61F WCI  25
IRONWOOD       CLOUDY    34  21  60 S23G35    29.55F WCI  22
$$

ABBREVIATIONS USED IN REMARKS
   TC - TEMPERATURE IN CELSIUS
  WCI - WIND CHILL INDEX
   HX - HEAT INDEX
  VSB - VISIBILITY




USA.gov is the U.S. government's official web portal to all federal, state and local government web resources and services.